User: anonymous
Location: Unspecified
(0.0000°N, 0.0000°E)
Time: 15:59:34
(UTC+02:00)
Language:

NOAA 12 - Orbit

View from above orbital plane
View from above orbital plane
View from above satellite
View from above satellite

Ground track
Ground track

The orbit data is extracted from the following two-line orbital elements,

1 21263U 91032A   14244.44063810  .00000042  00000-0  36236-4 0  4007
2 21263 098.6601 270.3904 0013750 020.8196 084.4832 14.25676444211425
Epoch (UTC): 01 September 2014 10:34:31
Eccentricity: 0.0013750
inclination: 98.6601°
perigee height: 796 km
apogee height: 816 km
right ascension of ascending node: 270.3904°
argument of perigee: 20.8196°
revolutions per day: 14.25676444
mean anomaly at epoch: 84.4832°
orbit number at epoch: 21142

The dashed part of the orbit path shows where the satellite is in the earth's shadow,  

DLR